This demonstration page uses our WeatherBlox Daily Observations layout. Learn more.

38.88101, -77.10428

Hourly Observations for March 11, 2020

Temp ( °F °C ) Dew Point ( °F °C ) Humidity (%) Winds ( mph kmh ) Pressure ( in mb ) Visibility ( mi km ) Precip ( " mm )
12:52 am 00:52 Partly Cloudy 58 14.4 47 8.3 67 67 NW 14 22 30.11 1020 10 16.0934 0 0
1:52 am 01:52 Partly Cloudy 55 12.8 43 6.1 64 64 NNW 14 22 30.12 1020 10 16.0934 0 0
2:52 am 02:52 Mostly Clear 54 12.2 42 5.6 64 64 NNW 14 22 30.13 1020 10 16.0934 0 0
3:52 am 03:52 Mostly Clear 52 11.1 41 5 66 66 N 17 28 30.12 1020 10 16.0934 0 0
4:52 am 04:52 Mostly Clear 50 10 40 4.4 68 68 NNW 13 20 30.13 1020 10 16.0934 0 0
5:52 am 05:52 Mostly Clear 48 8.9 39 3.9 71 71 NNW 12 19 30.13 1020 10 16.0934 0 0
6:52 am 06:52 Partly Cloudy 47 8.3 39 3.9 74 74 N 8 13 30.14 1021 10 16.0934 0 0
7:52 am 07:52 Partly Cloudy 47 8.3 40 4.4 77 77 NNE 5 7 30.14 1021 10 16.0934 0 0
8:52 am 08:52 Mostly Cloudy 50 10 39 3.9 66 66 N 8 13 30.15 1021 10 16.0934 0 0
9:52 am 09:52 Cloudy 51 10.6 38 3.3 61 61 NE 8 13 30.16 1021 10 16.0934 0 0
10:52 am 10:52 Cloudy 53 11.7 37 2.8 55 55 NE 6 9 30.16 1021 10 16.0934 0 0
11:52 am 11:52 Cloudy 54 12.2 37 2.8 53 53 Calm 30.12 1020 10 16.0934 0 0
12:10 pm 12:10 Cloudy 54 12.2 37 2.8 53 53 Calm 30.12 1020 10 16.0934 0 0
12:52 pm 12:52 Cloudy 54 12.2 38 3.3 55 55 Calm 30.12 1020 10 16.0934 0 0
1:52 pm 13:52 Cloudy 54 12.2 38 3.3 55 55 NNE 6 9 30.11 1020 10 16.0934 0 0
2:52 pm 14:52 Cloudy 55 12.8 39 3.9 55 55 N 7 11 30.07 1018 10 16.0934 0 0
3:52 pm 15:52 Cloudy 55 12.8 38 3.3 53 53 NNE 5 7 30.06 1018 10 16.0934 0 0
4:52 pm 16:52 Cloudy 56 13.3 40 4.4 55 55 NNE 5 7 30.05 1018 10 16.0934 0 0
5:52 pm 17:52 Cloudy 54 12.2 41 5 62 62 NE 7 11 30.05 1018 10 16.0934 0 0
6:52 pm 18:52 Mostly Cloudy 53 11.7 41 5 64 64 NE 9 15 30.05 1018 10 16.0934 0 0
7:52 pm 19:52 Mostly Cloudy 52 11.1 38 3.3 59 59 NE 9 15 30.07 1018 10 16.0934 0 0
8:52 pm 20:52 Mostly Cloudy 50 10 39 3.9 66 66 ENE 7 11 30.06 1018 10 16.0934 0 0
9:52 pm 21:52 Mostly Cloudy 51 10.6 38 3.3 61 61 NE 6 9 30.06 1018 10 16.0934 0 0
10:52 pm 22:52 Mostly Cloudy 51 10.6 38 3.3 61 61 NNE 5 7 30.08 1019 10 16.0934 0 0
11:52 pm 23:52 Mostly Cloudy with Light Rain 50 10 39 3.9 66 66 ENE 5 7 30.07 1018 10 16.0934 0.001 0.001

Powered by AerisWeather